Regional Weather Roundup
Issued by NWS

Home | Current Version | Previous Version | Graphics & Text | Print | Product List | Glossary On
Versions: 1 2 3 4 5 6 7 8 9 10 11 12 13 14 15 16 17 18 19 20 21 22 23 24 25 26 27 28 29 30 31 32 33 34 35 36 37 38 39 40 41 42 43 44 45 46 47 48 49 50
000
ASUS43 KLMK 310002
RWRKY
KENTUCKY REGIONAL WEATHER ROUNDUP
NATIONAL WEATHER SERVICE LOUISVILLE KY
800 PM EDT SAT AUG 30 2014

NOTE "FAIR" INDICATES FEW OR NO CLOUDS BELOW 12,000 FEET
WITH NO SIGNIFICANT WEATHER AND/OR OBSTRUCTIONS TO VISIBILITY.

KYZ001>023-026-027-061>063-070>075-310100-
WESTERN AND SOUTH CENTRAL KENTUCKY

CITY           SKY/WX    TMP DP  RH WIND       PRES   REMARKS
PADUCAH        CLOUDY    75  71  87 S7        29.99F
HENDERSON      CLOUDY    72  68  88 S8        29.99F
OWENSBORO      PTCLDY    72  59  64 S8          N/A
HOPKINSVILLE   CLOUDY    75  75 100 E5        30.04S
BOWLING GREEN  LGT RAIN  75  72  90 NW5       30.06R FOG
GLASGOW        HVY RAIN  74  74  99 W8        30.08R
$$

KYZ024-025-028>034-038-045-046-053-310100-
NORTH CENTRAL KENTUCKY

CITY           SKY/WX    TMP DP  RH WIND       PRES   REMARKS
LOUISVILLE/SDF LGT RAIN  74  70  87 SW6       30.02F FOG
LOUISVILLE/LOU LGT RAIN  74  70  87 SW3       30.03F FOG
FORT KNOX      CLOUDY    72  72 100 S5        30.03S
$$

KYZ035>037-039>044-047>052-055>060-089>105-310100-
NORTHEAST KENTUCKY

CITY           SKY/WX    TMP DP  RH WIND       PRES   REMARKS
LEXINGTON      CLOUDY    81  70  69 VRB3      30.06R
COVINGTON      CLOUDY    73  70  90 S6        30.03F FOG
FRANKFORT      LGT RAIN  74  69  85 SE3       30.05R
$$

KYZ054-064>069-076>088-106>120-310100-
SOUTHEAST KENTUCKY

CITY           SKY/WX    TMP DP  RH WIND       PRES   REMARKS
JACKSON        CLOUDY    80  68  66 CALM      30.08F
LONDON         CLOUDY    82  67  60 VRB7      30.09R
SOMERSET       CLOUDY    81  68  65 CALM      30.07S
MIDDLESBORO    MOCLDY    74  72  94 CALM      30.10S
MONTICELLO     MOCLDY    80  75  84 CALM      30.07S
$$




USA.gov is the U.S. government's official web portal to all federal, state and local government web resources and services.